FW1747 Weather Reports


Display with metric or nautical units.
time (UTC)temp
F
wind
direction
speed
MPH
gust
MPH
rain 1hr
in
rain 24hr
in
rain mn
in
humidity
%
barometer
mb
20260504183104 58 76 0.0 1.0 0.00 0.00 0.00 75 1014.1
20260504181556 58 233 0.0 0.0 0.00 0.00 0.00 74 1014.0
20260504180116 58 181 0.0 0.0 0.00 0.00 0.00 74 1014.0
20260504174556 57 146 0.0 0.0 0.00 0.00 0.00 75 1013.9
20260504173107 57 193 0.0 0.0 0.00 0.00 0.00 75 1013.9
20260504171601 57 192 0.0 0.0 0.00 0.00 0.00 75 1013.9
20260504081551 58 174 0.0 0.0 0.00 0.00 0.00 70 1009.9
20260504044526 72 333 0.0 0.0 0.00 0.00 0.00 44 1007.8
20260504043026 73 260 0.0 0.0 0.00 0.00 0.00 45 1007.6
20260504041538 75 260 0.0 0.0 0.00 0.00 0.00 44 1007.4
20260504040024 76 266 0.0 0.0 0.00 0.00 0.00 42 1007.3
20260504034524 77 245 0.0 0.0 0.00 0.00 0.00 42 1007.1
20260504033023 78 344 0.0 0.0 0.00 0.00 0.00 42 1007.1
20260504031523 80 274 0.0 0.0 0.00 0.00 0.00 38 1007.0
20260504030022 82 244 0.0 0.0 0.00 0.00 0.00 35 1007.0
20260504024522 84 246 0.0 0.0 0.00 0.00 0.00 30 1006.9
20260504023021 85 246 0.0 0.0 0.00 0.00 0.00 30 1006.9
20260504021520 86 281 0.0 0.0 0.00 0.00 0.00 29 1006.8
20260504020031 87 267 0.0 0.0 0.00 0.00 0.00 28 1006.9
20260504014522 87 217 0.0 1.0 0.00 0.00 0.00 28 1007.0
20260504013017 87 332 0.0 0.0 0.00 0.00 0.00 27 1007.0
20260504011517 86 345 0.0 0.0 0.00 0.00 0.00 29 1007.1
20260504010015 87 234 0.0 0.0 0.00 0.00 0.00 30 1007.1
20260504004515 87 325 0.0 1.0 0.00 0.00 0.00 29 1007.2
20260504003012 88 314 0.0 0.0 0.00 0.00 0.00 29 1007.3
20260504001521 88 312 0.0 1.0 0.00 0.00 0.00 28 1007.3
20260504000010 88 302 0.0 1.0 0.00 0.00 0.00 28 1007.5
20260503234508 88 331 0.0 0.0 0.00 0.00 0.00 31 1007.5
20260503233011 88 323 0.0 0.0 0.00 0.00 0.00 30 1007.6
20260503231504 87 296 0.0 2.0 0.00 0.00 0.00 30 1007.9
20260503230004 87 314 0.0 1.0 0.00 0.00 0.00 32 1008.1
20260503224611 87 315 0.0 0.0 0.00 0.00 0.00 32 1008.3
20260503223057 86 17 0.0 0.0 0.00 0.00 0.00 34 1008.6
20260503221601 85 304 0.0 0.0 0.00 0.00 0.00 39 1008.8
20260503220051 84 344 0.0 2.0 0.00 0.00 0.00 36 1009.1
20260503214547 83 294 0.0 3.0 0.00 0.00 0.00 40 1009.2
20260503213046 82 4 0.0 1.0 0.00 0.00 0.00 40 1009.4
20260503211541 82 354 0.0 1.0 0.00 0.00 0.00 43 1009.6
20260503210037 81 308 0.0 1.0 0.00 0.00 0.00 45 1009.7
20260503204534 80 8 0.0 0.0 0.00 0.00 0.00 46 1009.9
20260503203035 79 1 0.0 1.0 0.00 0.00 0.00 49 1010.2
20260503201528 78 251 0.0 1.0 0.00 0.00 0.00 48 1010.3
20260503200027 77 19 0.0 1.0 0.00 0.00 0.00 49 1010.5
20260503194521 76 33 0.0 0.0 0.00 0.00 0.00 52 1010.7
20260503193033 75 348 0.0 0.0 0.00 0.00 0.00 53 1010.9
20260503191532 74 358 0.0 0.0 0.00 0.00 0.00 56 1011.0
20260503190023 73 359 0.0 0.0 0.00 0.00 0.00 56 1011.2
20260503184507 71 18 0.0 0.0 0.00 0.00 0.00 59 1011.3